CW4645 Weather Reports


Display with metric or nautical units.
time (UTC)temp
F
wind
direction
speed
MPH
gust
MPH
rain 1hr
in
rain 24hr
in
rain mn
in
humidity
%
barometer
mb
20260503184445 68 15 1.0 7.0 0.00 0.00 0.00 39 1017.2
20260503182938 69 7 0.0 5.0 0.00 0.00 0.00 41 1017.6
20260503181420 68 97 0.0 5.0 0.00 0.00 0.00 45 1017.6
20260503175931 68 189 1.0 6.0 0.00 0.00 0.00 48 1017.6
20260503174423 69 249 2.0 6.0 0.00 0.00 0.00 44 1017.6
20260503172936 67 34 2.0 4.0 0.00 0.00 0.00 44 1017.8
20260503171417 68 211 3.0 8.0 0.00 0.00 0.00 45 1017.9
20260503131419 50 64 0.0 0.0 0.00 0.14 0.00 90 1018.5
20260503081449 46 64 0.0 0.0 0.00 0.41 0.00 94 1015.3
20260503072928 47 64 0.0 0.0 0.00 0.43 0.00 94 1015.1
20260503071445 47 64 0.0 0.0 0.00 0.43 0.00 94 1014.9
20260503054426 50 64 0.0 0.0 0.00 0.43 0.00 93 1014.6
20260503052945 50 64 0.0 0.0 0.00 0.43 0.00 93 1014.5
20260503051435 50 64 0.0 0.0 0.00 0.43 0.00 93 1014.5
20260503045928 51 64 0.0 0.0 0.00 0.43 0.00 93 1014.3
20260503044416 52 64 0.0 0.0 0.00 0.43 0.00 94 1014.2
20260503042932 52 64 0.0 0.0 0.00 0.43 0.00 93 1014.4
20260503041446 52 64 0.0 0.0 0.00 0.43 0.00 93 1014.2
20260503035933 52 64 0.0 0.0 0.00 0.43 0.43 93 1014.2
20260503034446 52 64 0.0 0.0 0.00 0.43 0.43 93 1014.1
20260503032946 52 64 0.0 0.0 0.00 0.43 0.43 93 1014.0
20260503031428 52 64 0.0 0.0 0.00 0.43 0.43 93 1014.0
20260503025923 52 64 0.0 0.0 0.00 0.43 0.43 93 1013.8
20260503024429 52 64 0.0 0.0 0.00 0.43 0.43 93 1013.8
20260503022924 52 64 0.0 0.0 0.00 0.43 0.43 93 1013.3
20260503021424 52 64 0.0 0.0 0.00 0.43 0.43 93 1012.8
20260503015937 52 64 0.0 0.0 0.00 0.43 0.43 93 1012.9
20260503014431 52 64 0.0 0.0 0.00 0.43 0.43 93 1012.5
20260503012946 52 64 0.0 0.0 0.00 0.43 0.43 92 1012.4
20260503011423 52 64 0.0 0.0 0.00 0.43 0.43 92 1012.2
20260503005931 53 64 0.0 0.0 0.00 0.43 0.43 92 1012.0
20260503004445 53 64 0.0 0.0 0.00 0.43 0.43 91 1011.7
20260503002921 54 64 0.0 0.0 0.00 0.43 0.43 90 1011.4
20260503001423 55 64 0.0 0.0 0.00 0.43 0.43 89 1011.4
20260503000004 56 64 0.0 0.0 0.00 0.43 0.43 88 1011.2
20260502234421 57 64 0.0 0.0 0.00 0.43 0.43 85 1010.9
20260502232941 57 64 0.0 0.0 0.00 0.43 0.43 83 1010.7
20260502231426 58 64 0.0 0.0 0.00 0.43 0.43 81 1010.6
20260502225933 59 64 0.0 0.0 0.00 0.43 0.43 78 1010.6
20260502224447 59 64 0.0 0.0 0.00 0.43 0.43 78 1010.7
20260502222933 60 64 0.0 0.0 0.00 0.43 0.43 80 1010.7
20260502221422 59 64 0.0 0.0 0.00 0.43 0.43 78 1010.6
20260502215933 59 64 0.0 0.0 0.00 0.43 0.43 79 1010.8
20260502214432 58 64 0.0 0.0 0.00 0.43 0.43 78 1010.7
20260502212923 58 64 0.0 0.0 0.00 0.43 0.43 82 1010.4
20260502211508 57 64 0.0 0.0 0.00 0.43 0.43 81 1010.3
20260502205935 58 64 0.0 0.0 0.00 0.43 0.43 80 1010.4
20260502204420 58 64 1.0 3.0 0.00 0.43 0.43 79 1010.6
20260502202954 58 64 0.0 0.0 0.00 0.43 0.43 81 1010.6
20260502201432 57 64 1.0 4.0 0.00 0.43 0.43 81 1010.7
20260502195933 56 50 0.0 3.0 0.00 0.43 0.43 83 1010.7
20260502194435 56 16 1.0 5.0 0.00 0.43 0.43 80 1010.9
20260502192940 55 26 0.0 2.0 0.00 0.43 0.43 85 1011.1
20260502191432 55 26 0.0 0.0 0.00 0.43 0.43 86 1011.1
20260502185925 54 26 0.0 3.0 0.00 0.43 0.43 86 1011.2